User: anonymous
Location: Columbus
(29.5618°N, 96.6770°W)
Time: 05:08:44
(UTC-05:00)
Language:

Cosmos 2056 Rocket - Orbit

View from above orbital plane
View from above orbital plane
View from above satellite
View from above satellite

Ground track
Ground track

The orbit data is extracted from the following two-line orbital elements,

1 20433U 90004B   14231.11843032  .00000128  00000-0  52686-4 0  7932
2 20433 074.0352 092.3283 0040263 113.8705 047.0449 14.35655797286929
Epoch (UTC): 19 August 2014 02:50:32
Eccentricity: 0.0040263
inclination: 74.0352°
perigee height: 744 km
apogee height: 801 km
right ascension of ascending node: 92.3283°
argument of perigee: 113.8705°
revolutions per day: 14.35655797
mean anomaly at epoch: 47.0449°
orbit number at epoch: 28692

The dashed part of the orbit path shows where the satellite is in the earth's shadow,  

DLR